Tracking 35048 objects as of 19-Aug-2026
HD Live streaming from Space Station
objects crossing your sky now

STARLINK-1156

Track STARLINK-1156 now!
10-day predictions
STARLINK-1156 is classified as:


NORAD ID: 45054
Int'l Code: 2020-006L
Launch date: January 29, 2020
Source: United States (US)
Launch site: AIR FORCE EASTERN TEST RANGE (AFETR)
Your satellite tracking list
Your tracking list is empty




NASA's NSSDC Master Catalog

Two Line Element Set (TLE):
1 45054U 20006L   26231.05903298  .00033273  00000-0  80712-3 0  9995
2 45054  53.1535 241.7483 0002123  19.2724 340.8361 15.40768183361473
Source of the keplerian elements: AFSPC